Tracking 25620 objects as of 18-May-2022
HD Live streaming from Space Station
objects crossing your sky now

COSMOS 2251 DEB

Track COSMOS 2251 DEB now!
10-day predictions


NORAD ID: 34746
Int'l Code: 1993-036ZQ
Perigee: 652.9 km
Apogee: 686.1 km
Inclination: 74.0 °
Period: 98.0 minutes
Semi major axis: 7040 km
RCS: 0.0172 m2 (small)
Launch date: June 16, 1993
Source: Commonwealth of Independent States (former USSR) (CIS)
Launch site: PLESETSK MISSILE AND SPACE COMPLEX (PKMTR)

Note: This is SATELLITE DEBRIS
aabbcc
Your satellite tracking list
Your tracking list is empty




NASA's NSSDC Master Catalog

Two Line Element Set (TLE):
1 34746U 93036ZQ  22137.94867279  .00015656  00000-0  26230-2 0  9990
2 34746  74.0263 225.9262 0023568 287.2399 190.2364 14.69588916702494
Source of the keplerian elements: AFSPC